User: anonymous   Login
Location: El Centro
(32.7920°N, 115.5620°W)
Time: 02:21:38
(UTC-08:00)
Language:

Hamsat - Orbit

View from above orbital plane
View from above orbital plane
View from above satellite
View from above satellite

Ground track
Ground track

The orbit data is extracted from the following two-line orbital elements,

1 28650U 05017B   15026.04158077  .00001371  00000-0  15930-3 0  9656
2 28650 097.5678 025.0811 0025747 139.7234 220.5897 14.86650048526329
Epoch (UTC): 26 January 2015 00:59:52
Eccentricity: 0.0025747
inclination: 97.5678°
perigee height: 590 km
apogee height: 626 km
right ascension of ascending node: 25.0811°
argument of perigee: 139.7234°
revolutions per day: 14.86650048
mean anomaly at epoch: 220.5897°
orbit number at epoch: 52632

The dashed part of the orbit path shows where the satellite is in the earth's shadow,  

DLR